| time (UTC) | temp C | wind direction | speed KPH | gust KPH | rain 1hr cm | rain 24hr cm | rain mn cm | humidity % | barometer mb |
| 20260901183005 | 19 | 275 | 3.2 | 11.3 | 0.00 | 0.05 | 0.05 | 79 | 1008.7 |
| 20260901181504 | 19 | 283 | 8.0 | 11.3 | 0.00 | 0.05 | 0.05 | 77 | 1008.7 |
| 20260901173005 | 19 | 222 | 1.6 | 4.8 | 0.00 | 0.05 | 0.05 | 86 | 1008.4 |
| 20260901163005 | 20 | 262 | 0.0 | 4.8 | 0.00 | 0.05 | 0.05 | 82 | 1008.0 |
| 20260901153005 | 21 | 217 | 3.2 | 12.9 | 0.03 | 0.05 | 0.05 | 77 | 1007.7 |
| 20260901150005 | 21 | 197 | 3.2 | 9.7 | 0.00 | 0.05 | 0.05 | 80 | 1007.8 |
| 20260901144505 | 20 | 216 | 3.2 | 9.7 | 0.00 | 0.05 | 0.05 | 80 | 1007.8 |
| 20260901133005 | 18 | 282 | 4.8 | 14.5 | 0.03 | 0.05 | 0.05 | 83 | 1007.8 |
| 20260901131504 | 20 | 212 | 6.4 | 19.3 | 0.00 | 0.03 | 0.03 | 77 | 1007.8 |
| 20260901124505 | 20 | 191 | 6.4 | 16.1 | 0.00 | 0.03 | 0.03 | 74 | 1007.8 |
| 20260901121504 | 21 | 218 | 4.8 | 12.9 | 0.00 | 0.03 | 0.03 | 72 | 1007.8 |
| 20260901114504 | 20 | 225 | 3.2 | 11.3 | 0.00 | 0.03 | 0.03 | 75 | 1007.9 |
| 20260901110005 | 19 | 197 | 4.8 | 9.7 | 0.00 | 0.03 | 0.03 | 78 | 1008.1 |
| 20260901104504 | 18 | 238 | 3.2 | 9.7 | 0.00 | 0.03 | 0.03 | 79 | 1008.1 |
| 20260901101504 | 18 | 258 | 3.2 | 12.9 | 0.00 | 0.03 | 0.03 | 81 | 1008.1 |
| 20260901094504 | 18 | 241 | 6.4 | 12.9 | 0.00 | 0.03 | 0.03 | 81 | 1008.0 |
| 20260901093006 | 18 | 263 | 1.6 | 11.3 | 0.00 | 0.03 | 0.03 | 81 | 1008.0 |
| 20260901083005 | 17 | 251 | 4.8 | 12.9 | 0.00 | 0.03 | 0.03 | 83 | 1007.4 |
| 20260901081504 | 17 | 239 | 4.8 | 11.3 | 0.00 | 0.03 | 0.03 | 84 | 1007.4 |
| 20260901080005 | 17 | 254 | 4.8 | 11.3 | 0.00 | 0.03 | 0.03 | 86 | 1007.4 |
| 20260901071504 | 17 | 256 | 3.2 | 8.0 | 0.00 | 0.03 | 0.03 | 89 | 1006.7 |
| 20260901070005 | 16 | 283 | 3.2 | 4.8 | 0.00 | 0.03 | 0.03 | 90 | 1006.7 |
| 20260901061504 | 16 | 285 | 1.6 | 4.8 | 0.00 | 0.03 | 0.03 | 91 | 1006.6 |
| 20260901054504 | 16 | 276 | 3.2 | 4.8 | 0.00 | 0.03 | 0.03 | 91 | 1006.6 |
| 20260901051504 | 16 | 250 | 1.6 | 4.8 | 0.00 | 0.03 | 0.03 | 92 | 1006.5 |
| 20260901041505 | 16 | 201 | 1.6 | 8.0 | 0.00 | 0.03 | 0.03 | 92 | 1006.5 |
| 20260901040004 | 16 | 210 | 3.2 | 9.7 | 0.00 | 0.03 | 0.03 | 92 | 1006.6 |
| 20260901033005 | 16 | 241 | 4.8 | 12.9 | 0.00 | 0.03 | 0.03 | 91 | 1006.6 |
| 20260901031503 | 16 | 226 | 3.2 | 9.7 | 0.00 | 0.03 | 0.03 | 91 | 1006.4 |
| 20260901024504 | 16 | 218 | 3.2 | 9.7 | 0.00 | 0.03 | 0.03 | 91 | 1006.3 |
| 20260901014504 | 16 | 207 | 3.2 | 11.3 | 0.03 | 0.03 | 0.03 | 91 | 1006.3 |
| 20260901011503 | 16 | 204 | 3.2 | 4.8 | 0.00 | 0.00 | 0.00 | 91 | 1006.3 |
| 20260901001503 | 17 | 192 | 1.6 | 9.7 | 0.00 | 0.00 | 0.00 | 91 | 1006.1 |
| 20260901000004 | 17 | 229 | 3.2 | 8.0 | 0.00 | 0.00 | 0.00 | 91 | 1006.1 |
| 20260831233003 | 17 | 224 | 3.2 | 11.3 | 0.00 | 0.00 | 0.00 | 92 | 1006.1 |
| 20260831231503 | 17 | 214 | 3.2 | 11.3 | 0.00 | 0.00 | 0.00 | 94 | 1006.4 |
| 20260831214504 | 16 | 162 | 3.2 | 11.3 | 0.00 | 0.00 | 0.00 | 93 | 1006.4 |
| 20260831211503 | 17 | 162 | 4.8 | 12.9 | 0.00 | 0.00 | 0.00 | 93 | 1006.3 |
| 20260831210005 | 17 | 162 | 4.8 | 11.3 | 0.00 | 0.00 | 0.00 | 93 | 1006.5 |
| 20260831201504 | 17 | 176 | 3.2 | 11.3 | 0.00 | 0.00 | 0.00 | 92 | 1006.5 |
| 20260831193004 | 17 | 151 | 4.8 | 12.9 | 0.00 | 0.00 | 0.00 | 93 | 1006.5 |
| 20260831191504 | 17 | 143 | 1.6 | 9.7 | 0.00 | 0.00 | 0.00 | 93 | 1006.4 |
| 20260831190004 | 17 | 173 | 3.2 | 11.3 | 0.00 | 0.00 | 0.00 | 93 | 1006.4 |